Regional Weather Roundup
Issued by NWS

Home | Current Version | Previous Version | Text Only | Print | Product List | Glossary On
Versions: 1 2 3 4 5 6 7 8 9 10 11 12 13 14 15 16 17 18 19 20 21 22 23 24 25 26 27 28 29 30 31 32 33 34 35 36 37 38 39 40 41 42 43 44 45 46 47 48 49 50
000
ASUS43 KOAX 230402
RWRNE

WEATHER ROUNDUP FOR NEBRASKA
NATIONAL WEATHER SERVICE OMAHA NE
1000 PM CST THU FEB 22 2018

NOTES: SATELLITE DATA IS BEING USED TO AUGMENT CLOUD COVER ABOVE
       12000 FEET.
       "FAIR" INDICATES FEW OR NO CLOUDS BELOW 12,000 FEET WITH NO
       SIGNIFICANT WEATHER AND/OR OBSTRUCTIONS TO VISIBILITY.


NEZ001>004-019>022-054>056-230500-
NEBRASKA PANHANDLE

CITY           SKY/WX    TMP DP  RH WIND       PRES   REMARKS
SCOTTSBLUFF    PTCLDY    11   8  88 N8        30.06R WCI  -1
ALLIANCE       PTCLDY     4   3  96 W8        30.04S WCI  -9
CHADRON        PTCLDY     1  -1  91 W6        30.10R WCI -10
GORDON         FAIR      13  10  88 W7        30.05R WCI   3
KIMBALL        CLOUDY    16  12  84 W8        30.02F WCI   5
SIDNEY         CLOUDY    18  14  84 NW9       30.04S WCI   7
$$

NEZ057>060-069>072-079>082-230500-
SOUTHWEST NEBRASKA

CITY           SKY/WX    TMP DP  RH WIND       PRES   REMARKS
NORTH PLATTE   PTCLDY    16  12  84 CALM      30.12R
IMPERIAL       CLOUDY    21  18  88 CALM      30.10R
LEXINGTON      CLOUDY    26  22  87 W6        30.14S WCI  19
MCCOOK         CLOUDY    23  22  96 CALM      30.14R
OGALLALA       CLOUDY    19  17  90 CALM      30.09S
$$

NEZ005>010-023>029-035>040-094-230500-
NORTH CENTRAL NEBRASKA

CITY           SKY/WX    TMP DP  RH WIND       PRES   REMARKS
VALENTINE      PTCLDY    18  15  88 W5        30.09S WCI  11
AINSWORTH      CLOUDY    20  19  96 SW5       30.09S WCI  14
BROKEN BOW     CLOUDY    22  18  85 SW6       30.12R WCI  14
O`NEILL        CLOUDY    22  20  95 SW3       30.13R
ORD            CLOUDY    23  20  88 CALM      30.13S FOG
THEDFORD       CLOUDY    19  16  90 SW3       30.08F
$$

NEZ041-046>049-061>064-073>077-083>087-230500-
SOUTH CENTRAL NEBRASKA

CITY           SKY/WX    TMP DP  RH WIND       PRES   REMARKS
GRAND ISLAND   CLOUDY    26  24  92 W5        30.15F FOG     WCI  20
AURORA         CLOUDY    26  25  96 W5        30.16S WCI  20
HASTINGS       CLOUDY    25  23  92 W5        30.14F WCI  19
HEBRON         CLOUDY    30  29  96 NW5       30.16F FOG     WCI  25
HOLDREGE       CLOUDY    24  24  99 W3        30.14S
KEARNEY        CLOUDY    25  23  92 W5        30.15F WCI  19
YORK           CLOUDY    27  27 100 CALM      30.16F
$$

NEZ011>018-030>034-042>045-230500-
NORTHEAST NEBRASKA

CITY           SKY/WX    TMP DP  RH WIND       PRES   REMARKS
NORFOLK        CLOUDY    24  23  96 SW3       30.15F FOG
ALBION         CLOUDY    24  23  93 CALM      30.16S
BLAIR          MIX PCPN  31  30  95 W3        30.16S
COLUMBUS       CLOUDY    26  24  92 NW3       30.17F FOG
FREMONT        LGT SNOW  28  28 100 W6        30.18F WCI  22
TEKAMAH        LGT SNOW  29  28  96 W3        30.19F FOG
WAYNE          LGT SNOW  26  25  96 CALM      30.16F
$$

NEZ050>053-065>068-078-088>093-230500-
SOUTHEAST NEBRASKA

CITY           SKY/WX    TMP DP  RH WIND       PRES   REMARKS
LINCOLN        CLOUDY    30  29  96 CALM      30.19F FOG
OMAHA EPPLEY   SLEET     32  30  92 SW5       30.18F FOG     WCI  27
BEATRICE       CLOUDY    32  32 100 W6        30.17S FOG     WCI  26
FALLS CITY     MIX PCPN  32  32 100 E5        30.18S FOG     WCI  27
NEBRASKA CITY  MIX PCPN  32  32 100 CALM      30.18S
PLATTSMOUTH    MIX PCPN  31  31 100 W3        30.18S
$$

NEZ044-045-051>053-067-230500-
OMAHA AREA

CITY           SKY/WX    TMP DP  RH WIND       PRES   REMARKS
OMAHA EPPLEY   SLEET     32  30  92 SW5       30.18F FOG     WCI  27
BLAIR          MIX PCPN  31  30  95 W3        30.16S
FREMONT        LGT SNOW  28  28 100 W6        30.18F WCI  22
MILLARD        LGT SNOW  32  31  95 W3        30.18F
OFFUTT AFB     FRZ RAIN  32  30  93 CALM      30.18S
PLATTSMOUTH    MIX PCPN  31  31 100 W3        30.18S
WAHOO          LGT SNOW  30  29  96 NW8       30.18F WCI  22
$$




USA.gov is the U.S. government's official web portal to all federal, state and local government web resources and services.